Weather in Razdol'ny

Russia / Kamchatka Krai     53°16′09″N   158°17′16″E
temp.,
°C
wind,
m/s
gust,
m/s
humid.,
%
clouds,
%
prec.,
mm/h
press.,
hPa
HPBL,
m
28 february, sun
sun2800:00−12nw3481100 0.1 100928
03:00−13nw4480100 0.0 100742
06:00−13nw5577100 0.0 100579
09:00−12nw5676100 0.0 1005104
12:00−7nw6874100 0.0 1002472
15:00−5nw686739 0.0 1000771
18:00−8wnw577760 0.0 998235
21:00−13wnw557767 0.0 99753
1 march, mon
mon100:00−14nw458236 0.0 99642
03:00−15wnw458414 0.0 99535
06:00−16wnw448516 0.0 99534
09:00−15nw44846 0.0 99539
12:00−8wnw5117628 0.0 996739
15:00−6w13157047 0.0 9971481
18:00−8w8157753 0.0 998692
21:00−11w48821 0.0 1001137
2 march, tue
tue200:00−11w5117716 0.0 1003183
03:00−11w51182100 0.0 1005196
06:00−13w338455 0.0 100826
09:00−15nw33790 0.0 101321
12:00−8wnw713665 0.0 10161434
15:00−7w11136969 0.1 10201875
18:00−10w7127567 0.2 1023527
21:00−15wnw128655 0.0 102721
3 march, wed
wed300:00−15nw228578 0.0 102821
03:00−15nnw2288100 0.0 102626
06:00−14nnw1195100 0.4 102264
09:00−12nw2395100 3.5 1016118
12:00−10nw3495100 6.7 1008216
15:00−8nw3395100 4.9 999201
18:00−5e1499100 11.8 990289
21:00−1ese514100100 6.4 980554
4 march, thu
thu400:00−2wsw91683100 8.2 9811215
03:00−9w11208140 0.2 989699
06:00−12w13217741 0.3 995872
09:00−14wnw13207429 0.1 10011192
12:00−11w16227352 0.1 10062004
15:00−10w16227574 0.1 10091911
18:00−9sw398166 0.3 1009474
21:00−9sse4138589 0.4 1007519